COSMOS 2432 (719)

Last updated on June 24, 2019, 3:41 a.m. UTC

1 32276U 07052B   19174.72135502 -.00000063  00000-0  10000-3 0  9995
2 32276  65.8639  41.0042 0011148 340.0828 144.2304  2.13103785 90748
UTC
Height (km)
Latitude
Longitude
Inclination
Orbital Period
UTC large
Height (km)
Speed (km/s)
/
Latitude / Longitude
Inclination (degrees)
Orbital Period (minutes)
Azimuth
Elevation
Range (km)
Doppler Factor
iOS Compass Heading
iOS Angle

Next 30 passes for location: Hong Kong

Rise time Rise Azimuth (degrees) Set time Set Azimuth (degrees) Duration Max altitude (degrees)

No matching passes for this satellites